Weather History for Shirley, NY

Change the Weather History Date:

Tuesday, January 22, 2013

  Actual Average (KISP) Record (KISP)
Temperature  
Mean Temperature 20 °F 30 °F  
Max Temperature 25 °F 38 °F 51 °F (1986)
Min Temperature 14 °F 23 °F -7 °F (1984)
Degree Days  
Heating Degree Days 45 35  
Month to date heating degree days 758  
Since 1 July heating degree days 2685  
Cooling Degree Days 0 0  
Month to date cooling degree days 0  
Year to date cooling degree days 0  
Moisture  
Dew Point 3 °F    
Average Humidity 48    
Maximum Humidity 78    
Minimum Humidity 36    
Precipitation  
Precipitation 0.00 in 0.12 in 1.62 in (1987)
Month to date precipitation 2.66  
Year to date precipitation 2.66  
Snow  
Snow 0.00 in 0.20 in 10.90 in (2005)
Month to date snowfall 4.8  
Since 1 July snowfall 10.7  
Snow Depth -    
Sea Level Pressure  
Sea Level Pressure 30.01 in    
Wind  
Wind Speed 12 mph (WNW)    
Max Wind Speed 18 mph    
Max Gust Speed 31 mph    
Visibility 10 miles    
Events      
T = Trace of Precipitation, MM = Missing Value Source: NWS Daily Summary

Daily Weather History Graph

Daily Weather History Graph

Search for Another Location

Airport:

Trip Planner

Search our weather history database for the weather conditions in past years. The results will help you decide how hot, cold, wet, or windy it might be!

Date:

Astronomy

Jan. 22, 2013 Rise Set
Actual Time 7:09 AM EST 4:56 PM EST
Civil Twilight 6:40 AM EST 5:26 PM EST
Nautical Twilight 6:06 AM EST 6:00 PM EST
Astronomical Twilight 5:34 AM EST 6:32 PM EST
Moon 1:17 PM EST (1/22) 3:29 AM EST (1/22)
Length of Visible Light 10h 46m
Length of Day
9h 47m
Waxing Gibbous, 82% of the Moon is Illuminated
Jan 22
Waxing Gibbous
Jan 26
Full
Feb 3
Last Quarter
Feb 10
New
Feb 17
First Quarter

Hourly Weather History & Observations

Time (EST) Temp. Windchill Dew Point Humidity Pressure Visibility Wind Dir Wind Speed Gust Speed Precip Events Conditions
1:56 AM 25.0 °F 17.1 °F 19.0 °F 78% 29.82 in 10.0 mi WNW 6.9 mph - N/A   Mostly Cloudy
2:56 AM 24.1 °F 12.5 °F 12.0 °F 60% 29.83 in 10.0 mi NW 12.7 mph - N/A   Clear
3:56 AM 21.9 °F 11.0 °F 10.0 °F 60% 29.84 in 10.0 mi West 10.4 mph - N/A   Clear
4:56 AM 21.9 °F 12.5 °F 9.0 °F 58% 29.87 in 10.0 mi West 8.1 mph - N/A   Scattered Clouds
5:56 AM 21.9 °F 11.0 °F 9.0 °F 58% 29.90 in 10.0 mi WNW 10.4 mph - N/A   Mostly Cloudy
6:56 AM 21.9 °F 9.2 °F 10.0 °F 60% 29.93 in 10.0 mi NW 13.8 mph - N/A   Overcast
7:56 AM 21.9 °F 8.2 °F 8.1 °F 55% 29.96 in 10.0 mi WNW 16.1 mph 24.2 mph N/A   Overcast
8:56 AM 21.0 °F 6.6 °F 3.0 °F 46% 29.99 in 10.0 mi WNW 17.3 mph 24.2 mph N/A   Clear
9:56 AM 21.0 °F 7.6 °F 1.9 °F 44% 30.01 in 10.0 mi WNW 15.0 mph 24.2 mph 0.00 in   Clear
10:56 AM 21.9 °F 8.2 °F 3.9 °F 46% 30.01 in 10.0 mi WNW 16.1 mph 26.5 mph N/A   Partly Cloudy
11:56 AM 21.9 °F 8.7 °F 3.9 °F 46% 29.99 in 10.0 mi WNW 15.0 mph 25.3 mph N/A   Clear
12:56 PM 21.9 °F 7.3 °F 3.9 °F 46% 29.98 in 8.0 mi West 18.4 mph 31.1 mph N/A   Mostly Cloudy
1:56 PM 21.9 °F 9.2 °F 1.0 °F 40% 29.98 in 10.0 mi WNW 13.8 mph 23.0 mph N/A   Mostly Cloudy
2:56 PM 21.0 °F 7.1 °F 1.0 °F 42% 30.00 in 10.0 mi NW 16.1 mph 24.2 mph N/A   Mostly Cloudy
3:56 PM 21.0 °F 6.2 °F -0.0 °F 40% 30.02 in 10.0 mi NW 18.4 mph 27.6 mph N/A   Mostly Cloudy
4:56 PM 19.9 °F 5.7 °F -2.0 °F 38% 30.05 in 10.0 mi WNW 16.1 mph 20.7 mph N/A   Scattered Clouds
5:56 PM 19.0 °F 5.6 °F -2.0 °F 40% 30.08 in 10.0 mi WNW 13.8 mph 19.6 mph N/A   Mostly Cloudy
6:56 PM 18.0 °F 3.1 °F -2.9 °F 40% 30.11 in 10.0 mi WNW 16.1 mph 24.2 mph N/A   Partly Cloudy
7:56 PM 18.0 °F 4.2 °F -4.0 °F 38% 30.12 in 10.0 mi NW 13.8 mph 20.7 mph N/A   Clear
8:56 PM 17.1 °F 3.0 °F -6.0 °F 36% 30.15 in 10.0 mi NW 13.8 mph 27.6 mph N/A   Partly Cloudy
9:56 PM 16.0 °F 3.6 °F -4.0 °F 41% 30.16 in 10.0 mi WNW 10.4 mph - N/A   Mostly Cloudy
10:56 PM 15.1 °F 0.5 °F -5.1 °F 41% 30.17 in 10.0 mi WNW 13.8 mph 26.5 mph N/A   Mostly Cloudy
11:56 PM 14.0 °F 0.5 °F -6.0 °F 41% 30.17 in 10.0 mi WNW 11.5 mph 19.6 mph N/A   Partly Cloudy